Presure
280 278 278 276 255 244 250 251 272 262 253 259 297 292 261 248 238 244 233 232 248 217 215 214 201 208 211 201 204 203 198 201 194 197 198 197 197 192 196 187 193 199 192 184
271 280 291 300 304 324 341 349 346 361 152 310 287 273 292 251 241 240 239 240 228 132 246 219 211 220 211 210 203 208 199 195 194 195 195 195 189 186 187 195 197 206 187 194
313 306 307 324 320 336 342 398 405 408 413 421 423 430 275 292 253 241 238 240 242 157 231 229 230 174 169 231 223 208 208 206 202 202 204 207 204 205 208 211 202 198 191 197
316 309 325 313 312 339 373 393 380 394 411 137 400 400 370 266 279 259 244 237 233 228 231 231 235 229 228 230 230 223 220 214 212 203 197 196 198 194 196 196 202 198 200 193
319 320 310 314 326 344 356 378 376 372 409 409 390 390 388 230 256 266 267 247 245 236 231 228 226 233 232 226 216 219 221 220 222 220 216 212 207 210 207 205 203 200 205 195
304 308 306 330 346 340 354 396 409 376 371 365 372 367 354 348 155 260 259 269 270 209 240 234 227 227 227 228 229 226 223 223 220 210 218 221 220 208 211 212 213 214 213 209
317 320 329 338 344 379 331 335 357 361 345 352 350 339 340 171 327 268 258 263 271 276 272 258 250 244 240 237 229 224 227 226 220 216 216 218 209 213 216 227 227 227 228 225
322 329 351 365 332 326 311 299 305 333 335 337 229 331 305 306 326 309 288 255 264 263 266 269 267 268 262 251 251 247 245 244 249 250 246 169 238 119 171 164 224 220 225 225
340 347 315 335 306 323 330 334 336 334 308 311 310 319 104 296 293 325 303 327 267 261 263 260 168 266 274 279 283 275 260 257 235 252 246 253 239 253 255 260 245 133 248 243
340 327 316 314 319 314 305 313 315 316 314 313 308 162 308 309 94 235 305 307 317 320 322 322 229 280 217 301 274 300 266 258 270 279 215 272 106 192 287 288 283 142 266 178
318 313 310 304 288 289 292 290 286 287 296 301 297 293 296 294 293 292 171 296 304 222 305 303 308 306 305 313 314 314 317 321 324 328 298 240 305 314 312 279 296 191 144 119
303 300 296 288 283 278 276 277 286 212 268 260 278 277 256 275 254 273 106 257 276 127 285 289 287 290 295 296 293 294 289 294 292 295 306 190 325 327 325 327 337 351 304 286
283 287 288 280 277 277 277 278 283 275 266 267 265 258 235 257 262 103 265 269 270 276 161 137 280 278 276 275 279 281 252 278 282 289 293 228 298 316 318 301 331 313 318 328
292 285 280 280 281 280 277 276 274 274 276 272 262 261 190 235 261 263 116 203 266 270 274 194 186 141 276 194 277 273 170 270 271 276 277 288 282 299 305 294 329 304 295 305
267 263 259 256 255 258 259 260 271 273 271 273 272 267 264 262 215 263 261 254 167 254 255 264 163 137 257 253 248 261 270 284 295 283 282 290 284 307 290 308 317 319 295 308
298 284 278 277 274 270 267 280 281 269 271 268 259 257 253 258 256 256 250 246 254 257 256 268 276 147 241 239 279 295 297 268 287 260 267 282 273 295 300 304 311 313 156 271
396 345 321 314 308 296 287 284 259 274 278 271 268 194 268 250 265 243 229 260 262 165 178 160 150 278 280 293 266 297 306 321 314 339 271 280 295 291 283 273 271 271 188 284
409 413 398 382 378 382 365 319 311 308 301 294 288 236 279 231 278 175 186 273 276 282 141 249 140 218 292 301 246 362 375 350 321 330 369 333 284 286 321 291 276 284 277 267
406 398 388 377 366 366 312 368 370 377 404 402 378 344 334 314 345 344 337 336 329 306 288 251 310 342 375 324 184 319 334 295 329 334 350 319 276 292 279 277 283 272 258 257
361 368 357 363 374 376 366 355 349 353 350 361 357 369 372 372 366 361 122 334 335 318 316 216 363 320 318 160 309 307 309 339 334 337 341 276 298 282 274 280 272 262 258 259
334 339 344 342 340 341 339 334 338 340 337 331 344 334 167 275 302 324 334 336 333 329 319 323 307 305 300 303 201 316 274 329 324 326 273 271 280 301 269 256 275 271 274 259
331 330 325 321 324 329 326 324 319 316 322 314 307 304 312 309 312 336 331 316 321 315 323 317 306 298 299 286 316 333 251 321 312 325 270 287 262 284 275 256 315 272 265 263
313 311 297 304 333 321 305 307 313 312 302 291 304 308 315 323 327 323 310 307 322 318 294 303 297 296 306 312 270 306 309 313 306 304 305 312 271 330 271 272 265 359 275 267
305 304 306 311 310 311 311 316 314 318 317 324 317 313 314 316 325 322 304 299 313 357 322 268 264 299 306 295 283 281 286 295 305 313 321 300 286 272 279 272 289 301 287 264
299 298 297 296 302 302 304 307 307 307 311 314 313 316 324 326 341 321 288 270 266 267 272 269 270 261 287 307 278 271 286 278 282 283 285 288 287 289 284 281 279 276 280 296
315 306 305 319 309 278 281 276 276 285 279 284 286 277 302 289 278 283 279 270 266 273 266 264 282 275 283 284 280 269 271 266 267 264 272 272 274 274 273 273 278 279 280 280
288 293 288 283 280 285 305 317 277 273 279 285 271 286 286 274 283 281 289 274 268 261 259 277 276 270 262 260 257 259 267 262 260 261 263 269 264 264 265 266 270 269 269 273
Wind_Speed
80 79 77 75 78 80 80 78 76 78 78 73 77 87 86 88 85 86 89 79 85 81 81 81 74 77 76 66 67 66 62 61 61 64 69 68 64 57 57 44 52 56 45 39
80 79 81 80 80 79 76 71 66 62 18 69 73 72 94 93 88 88 88 92 81 42 84 88 78 86 78 76 71 75 70 64 66 70 73 70 58 56 55 57 54 54 42 44
80 78 76 71 71 69 68 57 52 49 48 44 47 50 79 94 98 90 86 87 91 48 83 80 82 53 54 81 83 80 77 76 74 73 80 81 76 74 74 70 60 52 44 52
70 69 64 63 62 60 54 48 43 39 36 16 41 44 53 77 94 100 95 92 88 83 83 83 84 85 83 82 77 75 80 81 83 77 72 73 68 65 65 61 59 48 58 49
62 60 56 58 56 52 48 39 32 30 22 23 33 37 42 64 79 89 99 96 98 88 83 83 82 85 83 80 76 77 79 77 82 84 86 86 85 82 79 78 70 56 61 54
55 54 54 51 48 48 41 30 28 27 29 31 34 36 44 39 32 80 84 95 100 78 97 88 83 80 83 82 83 81 79 80 80 76 86 89 89 89 86 85 81 75 69 68
50 49 48 45 43 41 31 27 32 33 35 37 38 42 46 19 61 76 81 82 89 95 96 97 98 98 94 88 82 80 84 84 82 79 82 84 74 85 91 96 92 89 84 80
44 44 41 38 35 32 31 30 27 33 37 41 23 44 50 53 54 61 73 77 82 80 81 84 89 93 97 93 94 92 91 91 93 93 94 49 92 21 64 58 85 83 81 77
38 37 37 35 34 32 27 30 33 39 42 40 45 47 16 52 55 53 60 55 76 76 79 78 34 76 83 86 89 92 89 88 79 88 85 91 83 90 92 95 77 26 89 80
37 36 35 34 34 30 28 30 37 43 43 46 47 25 49 51 7 36 53 55 53 53 54 58 36 68 44 69 72 78 79 79 82 86 62 86 5 41 94 94 91 31 89 50
37 38 38 39 37 34 31 34 37 37 37 43 44 45 46 46 47 48 19 54 52 37 51 52 51 52 53 51 52 53 55 56 57 59 54 42 72 67 74 88 88 48 34 26
39 40 42 42 42 39 36 35 40 31 41 40 43 45 42 45 43 49 17 46 52 13 47 47 48 47 47 48 49 52 53 54 58 58 52 26 54 53 59 61 63 63 77 78
39 42 44 44 43 43 40 41 42 45 45 46 46 46 41 47 50 9 50 52 55 50 18 29 50 48 49 50 51 54 49 56 54 55 49 49 53 46 53 61 56 56 58 56
45 44 44 46 48 47 45 43 44 44 44 49 49 49 39 47 50 50 8 37 53 51 48 29 30 17 47 30 52 52 32 55 52 51 51 52 52 49 46 55 53 58 52 53
43 43 44 43 43 44 44 45 52 51 49 47 48 52 54 56 42 56 55 52 13 50 47 44 13 11 50 53 52 52 56 54 54 51 52 53 51 47 46 46 53 60 53 34
59 58 57 57 56 55 53 60 61 53 56 52 49 50 48 50 50 53 53 54 57 57 55 54 51 16 53 56 58 57 56 56 56 51 54 53 48 47 40 42 42 44 22 61
50 68 72 75 74 71 67 64 59 67 66 60 58 35 58 53 58 49 48 64 58 16 22 9 3 62 65 66 54 58 61 63 61 66 54 51 49 48 48 52 53 53 31 52
26 33 42 43 42 44 54 80 80 78 75 74 70 55 70 50 67 34 40 66 65 66 15 50 15 44 73 73 45 55 35 28 40 47 33 45 47 51 46 61 56 51 55 57
25 31 36 35 30 28 27 36 35 31 27 24 36 65 66 50 61 60 60 60 61 58 54 50 74 55 43 23 24 13 19 30 40 37 35 42 49 52 54 59 57 56 56 55
37 44 37 32 32 32 32 33 37 37 31 26 23 22 19 29 28 31 22 38 37 38 37 23 19 23 23 10 29 28 24 25 29 32 37 40 42 49 55 58 57 60 60 61
57 55 55 55 54 47 48 41 37 33 36 33 32 36 8 17 27 22 30 34 36 36 33 37 39 31 29 26 11 17 23 19 23 24 37 42 41 48 51 45 62 65 65 65
50 47 45 40 46 42 40 36 35 33 34 31 28 28 31 30 29 31 37 45 40 44 40 37 31 23 19 13 16 14 15 14 20 18 38 36 45 44 50 46 47 71 69 71
40 40 41 43 37 34 35 33 31 30 27 23 20 23 21 21 26 42 43 35 40 42 16 23 17 15 20 22 13 12 8 9 11 15 20 25 42 30 45 48 48 41 77 74
36 38 36 32 33 32 28 26 26 24 21 21 23 20 18 18 26 38 21 15 18 20 26 27 21 18 17 16 15 14 11 10 13 12 12 19 29 38 37 44 40 40 65 64
46 46 45 44 41 39 37 33 30 27 23 20 17 16 15 16 21 25 35 36 32 28 26 23 28 24 12 13 14 11 8 9 9 10 11 13 14 15 26 31 36 42 47 50
38 45 45 39 39 43 43 42 41 40 40 39 40 38 35 39 36 38 35 30 26 24 22 19 16 15 17 17 18 15 13 14 16 22 17 21 22 23 27 29 25 28 33 44
55 58 56 54 48 48 48 41 35 34 34 32 31 34 33 31 29 27 21 21 24 20 19 16 21 20 17 17 20 22 22 24 28 29 28 24 24 26 27 30 31 34 38 41
Wind_Direction
272 271 270 267 261 263 261 260 250 249 257 254 240 229 229 230 235 233 236 236 234 235 237 237 240 242 241 243 242 241 240 240 242 245 246 246 249 252 255 246 259 266 263 262
270 271 272 273 273 272 271 270 269 262 251 254 245 238 228 230 233 235 234 235 238 243 234 238 239 238 242 241 242 241 242 241 244 246 249 250 246 248 252 254 253 259 248 265
268 269 270 270 270 270 269 268 260 255 250 246 239 233 232 228 229 233 235 235 235 239 240 240 239 241 242 239 240 241 242 242 243 244 250 252 252 253 254 255 254 251 247 262
264 266 267 266 267 268 268 261 259 250 248 234 232 224 224 228 227 230 233 235 238 237 238 240 239 241 240 241 241 242 241 244 246 246 246 252 251 251 252 253 255 247 259 246
259 262 261 265 266 262 265 258 251 239 208 198 214 216 216 222 227 229 231 234 235 236 238 237 238 241 242 241 242 242 242 243 243 245 246 249 254 256 259 258 255 247 256 252
256 258 259 259 255 256 256 241 203 204 188 193 200 205 208 212 234 227 230 232 235 236 237 240 238 239 242 243 244 243 243 243 244 245 247 248 250 256 255 256 257 258 258 260
250 251 253 250 247 239 236 222 204 189 192 192 196 200 204 213 214 225 229 231 235 236 235 238 240 243 244 242 242 243 244 244 244 244 246 249 249 252 256 257 258 259 259 260
242 245 241 230 230 232 232 230 217 189 188 191 183 196 208 211 212 219 228 231 234 235 237 238 240 242 243 245 247 247 248 249 250 249 249 241 249 243 249 251 254 255 257 257
235 229 227 219 230 222 214 203 187 181 202 196 197 195 217 215 218 214 224 222 234 236 237 238 233 241 243 244 245 248 250 252 249 252 251 253 253 251 251 252 252 256 254 250
213 213 215 215 213 209 194 179 178 182 189 189 192 206 199 205 196 215 215 221 222 225 228 230 231 241 245 242 246 244 247 249 248 248 249 249 151 254 251 251 248 245 250 248
209 209 208 208 217 216 203 189 188 189 185 187 191 197 201 204 208 209 194 221 224 225 226 233 234 235 239 241 240 243 245 246 246 247 247 238 247 250 249 252 249 244 254 257
211 210 211 215 218 221 217 208 196 201 205 200 201 203 205 211 214 219 186 228 232 168 230 234 237 240 241 241 242 244 241 243 241 242 247 241 250 247 247 249 248 243 242 240
221 218 216 220 224 225 224 220 211 205 207 209 214 218 218 219 222 184 229 233 235 234 218 230 233 237 239 242 244 245 244 245 246 248 251 250 246 244 244 246 243 239 239 241
221 226 228 226 225 226 227 226 227 223 215 210 213 219 217 231 231 233 218 242 244 245 242 240 235 242 239 246 241 243 243 245 244 246 247 247 245 245 240 242 239 237 237 239
234 235 236 237 236 234 232 229 229 228 227 225 222 220 223 226 228 233 235 242 228 249 249 246 229 253 239 238 240 242 247 251 250 243 245 246 246 247 239 237 238 231 239 239
232 233 234 234 234 236 238 229 229 236 235 231 230 231 226 229 231 233 241 243 245 247 249 252 252 185 243 241 253 258 258 245 248 241 243 244 242 239 233 222 225 220 254 222
236 234 233 233 232 233 235 236 232 234 235 234 233 227 234 230 236 238 238 244 246 218 232 247 306 258 259 261 259 262 268 271 266 266 244 241 238 231 229 228 227 224 251 220
216 211 212 216 219 221 227 235 236 236 236 238 238 231 240 238 242 220 234 247 249 251 220 253 237 254 263 267 266 269 258 219 236 247 244 233 228 230 225 211 221 217 212 220
131 155 170 183 186 177 178 190 204 211 209 203 224 238 241 234 238 236 237 239 241 243 243 246 252 254 248 225 221 236 235 232 231 238 234 225 228 218 222 224 216 214 228 232
113 120 135 151 153 155 162 149 147 151 163 155 155 170 176 185 196 197 201 218 216 222 213 215 201 194 182 231 215 225 234 240 234 226 231 220 219 224 230 225 225 232 236 235
107 108 113 117 116 122 134 144 143 138 134 137 133 135 164 151 192 210 205 198 192 187 184 183 196 193 208 214 240 238 233 243 231 236 216 222 224 222 230 242 234 235 232 238
119 119 123 125 127 127 132 132 135 143 136 139 148 154 161 176 188 192 180 175 186 183 185 184 178 192 205 218 234 211 236 217 226 228 218 229 232 232 231 241 242 231 236 238
99 97 112 104 105 111 112 112 119 129 135 140 149 152 155 168 182 178 179 187 184 189 209 193 175 194 209 189 193 163 191 211 227 235 236 239 235 238 239 241 244 243 231 237
108 106 105 103 110 115 119 125 126 132 135 146 144 144 151 167 179 186 177 163 200 198 156 157 165 166 170 151 164 177 175 199 215 218 227 236 238 242 245 247 253 243 235 242
106 104 104 103 104 103 104 107 109 112 119 126 128 134 157 164 184 175 119 135 144 143 152 165 184 195 155 171 172 191 186 199 186 206 203 203 215 227 242 249 247 243 246 244
109 106 103 102 101 103 103 107 108 105 109 108 111 120 112 115 127 126 133 144 149 146 168 180 148 156 145 149 159 178 177 204 216 232 244 237 231 232 238 243 247 249 250 251
110 106 109 109 110 106 97 99 117 121 123 119 132 125 119 136 121 120 104 140 156 171 185 160 162 170 202 212 232 229 215 226 238 243 247 245 250 255 259 262 264 264 264 265